Regional Weather Roundup
Issued by NWS Upton, NY

Current Version | Previous Version | Text Only | Print | Product List | Glossary On
Versions: 1 2 3 4 5 6 7 8 9 10 11 12 13 14 15 16 17 18 19 20 21 22 23 24 25 26 27 28 29 30 31 32 33 34 35 36 37 38 39 40 41 42 43 44 45 46 47 48 49 50
000
ASUS41 KOKX 210805
RWROKX

REGIONAL WEATHER ROUNDUP
NATIONAL WEATHER SERVICE NEW YORK NY
300 AM EST SUN DEC 21 2014

NOTE: "FAIR" INDICATES FEW OR NO CLOUDS BELOW 12,000 FEET WITH NO
SIGNIFICANT WEATHER AND/OR OBSTRUCTIONS TO VISIBILITY.

NYZ071-072-176-178-NJZ106-104-210900-
NEW YORK CITY METRO AREA


CITY           SKY/WX    TMP DP  RH WIND       PRES   REMARKS
CENTRAL PARK   CLOUDY    31  22  69 NW6       30.30S WCI  25
LAGUARDIA APRT CLOUDY    32  23  69 N5        30.28S WCI  27
KENNEDY INTL   CLOUDY    34  22  61 N7        30.29S WCI  28
NEWARK/LIBERTY CLOUDY    32  23  69 NW6       30.29S WCI  26
BRNX BOT. GARD   N/A    N/A N/A N/A NW5       30.29R
TETERBORO      CLOUDY    31  23  72 NW5       30.28S WCI  26
$$

NYZ177-179-078>081-210900-
LONG ISLAND NEW YORK

CITY           SKY/WX    TMP DP  RH WIND       PRES   REMARKS
FARMINGDALE    CLOUDY    33  23  66 NW5       30.27F WCI  29
ISLIP          CLOUDY    32  25  75 NW7       30.25S WCI  26
SHIRLEY        CLOUDY    33  28  81 W3        30.27F
WESTHAMPTON    CLOUDY    33  28  81 CALM      30.27F
MONTAUK POINT    N/A     39  35  86 N8        30.25F WCI  33
$$

NYZ052-065-067-210900-
HUDSON VALLEY

CITY           SKY/WX    TMP DP  RH WIND       PRES   REMARKS
WHITE PLAINS   CLOUDY    29  24  82 NW5       30.25S WCI  24
NEWBURGH       NOT AVBL
MONTGOMERY     CLOUDY    28  24  85 NE5       30.27S WCI  23
POUGHKEEPSIE   LGT SNOW  29  24  82 N3        30.29S
ALBANY         FLURRIES  28  19  69 N5        30.31F WCI  23
$$

NJZ001-105-106-008-010-013-015-019>022-104-210900-
NEW JERSEY

CITY           SKY/WX    TMP DP  RH WIND       PRES   REMARKS
NEWARK/LIBERTY CLOUDY    32  23  69 NW6       30.29S WCI  26
TETERBORO      CLOUDY    31  23  72 NW5       30.28S WCI  26
CALDWELL       CLOUDY    30  23  75 NW3       30.29S
MORRISTOWN     CLOUDY    32  23  69 CALM      30.29R
SOMERVILLE     CLOUDY    32  23  69 CALM      30.28R
SUSSEX         CLOUDY    28  25  88 CALM      30.27S
ANDOVER          N/A     28  23  81 CALM      30.27R
TRENTON        CLOUDY    30  22  72 NW3       30.29R
MILLVILLE      CLOUDY    27  23  85 CALM      30.30S
ATLANTIC CITY  MOCLDY    29  22  75 NW3       30.29S
WRIGHTSTOWN    CLOUDY    30  24  78 NW3       30.27R
TOMS RIVER     CLOUDY    28  25  86 NW5       30.29S WCI  23
BELMAR         CLOUDY    30  19  64 W6        30.28R WCI  24
$$

PAZ047>061-062-071-210900-
EASTERN PENNSYLVANIA

CITY           SKY/WX    TMP DP  RH WIND       PRES   REMARKS
PHILADELPHIA   CLOUDY    32  23  69 SE3       30.31S
ALLENTOWN      CLOUDY    31  22  69 NW3       30.29R
SCRANTON       CLOUDY    29  20  69 N3        30.25R
$$

CTZ002-004>006-009-010-012-RIZ004-006-007-MAZ004-011-015-210900-
SOUTHERN NEW ENGLAND
 IN CT

CITY           SKY/WX    TMP DP  RH WIND       PRES   REMARKS
BRADLEY INTL   LGT SNOW  31  28  89 N6        30.27S FOG     WCI  25
HARTFORD       LGT SNOW  31  29  92 N7        30.28F FOG     WCI  24
DANBURY        CLOUDY    28  23  81 CALM      30.26F HAZE
WTRBRY/OXFORD  CLOUDY    30  21  69 NE6       30.24F WCI  24
BRIDGEPORT     CLOUDY    32  27  81 N6        30.27F WCI  26
MERIDEN        LGT SNOW  32  28  85 VRB3      30.27F FOG
NEW HAVEN      CLOUDY    35  27  72 N3        30.27F
CHESTER        CLOUDY    32  30  93 N3        30.25F
GROTON         CLOUDY    33  30  88 N7        30.26S WCI  27
WILLIMANTIC    CLOUDY    33  27  78 N3        30.27S

 IN RI

CITY           SKY/WX    TMP DP  RH WIND       PRES   REMARKS
PROVIDENCE     CLOUDY    32  30  92 N8        30.27F FOG     WCI  25
BLOCK ISLAND   CLOUDY    39  34  81 NE10G17   30.23S WCI  32
WESTERLY       CLOUDY    35  31  85 N7        30.26S WCI  29

 IN MA

CITY           SKY/WX    TMP DP  RH WIND       PRES   REMARKS
BOSTON         FLURRIES  35  30  82 NE12      30.29S WCI  27
WORCESTER      CLOUDY    28  24  85 NE7       30.24S WCI  21
WESTFIELD      LGT SNOW  31  28  89 N6        30.28F FOG     WCI  25
PROVINCETOWN   CLOUDY    37  30  75 NE20      30.26F WCI  27
NANTUCKET      CLOUDY    40  33  76 NE6       30.23F
$$

ANZ330-335-338-340-345-350-353-355-210900-
COASTAL MARINE OBSERVATIONS


STATION/POSITION TIME  SKY/WX   TEMP    WIND        PRES    VSBY  WAVE
                                AIR SEA DIR/SP/G                  HT/PER
                 (UTC)          (F)     (DEG/KT/KT) (MB)    (MI)  (FT/S)
NY HARB ENTRANCE 0800            35 46  340/  6/ 10 1025.5          1
4S FIRE IS       0800               45                N/A           1/11
20S FIRE ISLAND  0700            37 49              1025.4          1/10
23SW MTP         0800                                 N/A           3/ 5
HUDSON CANYON    0800            40 54  310/ 10/ 12 1024.0          2/ 5
EXECUTION ROCKS  0800            33 41  350/  6/ 10   N/A
WESTERN LI SOUND 0800            33     350/  6/  8   N/A           0
CENTRAL LI SOUND 0700            34 44  360/  6/  8   N/A           1
EASTERN LI SOUND NOT AVBL
ROBBINS REEF     0800            32        CALM     1024.3
$$


>>>>>>>>>>>>>>>>>>>>>>>>>>>> KEY <<<<<<<<<<<<<<<<<<<<<<<<<<<
>                                                          <
>     SKY/WX - SKY CONDITION/PRESENT WEATHER               <
>     TMP    - TEMPERATURE IN FAHRENHEIT                   <
>     DP     - DEWPOINT IN FAHRENHEIT                      <
>     RH     - RELATIVE HUMIDITY IN PERCENT                <
>     WIND   - DIRECTION AND SPEED IN MPH                  <
>     PRES   - MEAN SEA LEVEL PRESSURE IN INCHES OF HG     <
>     WCI    - WIND CHILL INDEX                            <
>     VSB    - VISIBILITY IN MILES                         <
>     HX     - HEAT INDEX                                  <
>     TC     - TEMPERATURE IN CELSIUS                      <
>     VRB    - VARIABLE WIND DIRECTION                     <
>                                                          <
>>>>>>>>>>>>>>>>>>>>>>>>>>>> KEY <<<<<<<<<<<<<<<<<<<<<<<<<<<




USA.gov is the U.S. government's official web portal to all federal, state and local government web resources and services.